Theta_e
308 308 308 308 308 307 307 307 307 307 307 306 307 306 307 307 307 308 309 310 310 311 310 310 309 309 309 310 310 310 310 310 310 310 311 313 313 315 317 320 320 320 318 314 327 341 340 344 349 347 347 349 350 350 350 352 353 355 358 358 357 359 357 356 359 360 361 359 358 359 360 360 359 358 358 357 357 357 356 355 354 350 350 351 350 350 349 350
309 309 309 309 309 309 309 308 307 307 306 306 307 307 307 307 307 308 308 310 311 311 311 310 309 308 309 310 310 310 310 309 310 310 312 314 314 314 313 316 318 320 318 315 329 342 342 344 345 345 347 348 351 351 351 352 354 356 358 356 356 359 357 356 357 357 359 359 359 359 359 359 359 359 358 359 358 358 356 355 355 352 351 351 350 350 350 349
309 309 310 309 310 310 310 310 309 309 308 308 307 307 307 307 307 308 308 310 310 311 311 310 310 308 309 310 310 310 309 310 315 317 317 317 315 313 312 313 316 321 319 316 330 342 342 343 341 341 345 348 350 351 352 353 355 356 356 355 356 356 355 356 357 358 359 360 360 360 358 360 360 358 358 359 357 358 356 354 355 353 351 351 350 350 350 349
310 310 309 309 309 310 310 310 310 310 310 309 309 308 308 308 308 308 309 310 311 312 311 311 310 309 309 309 309 309 309 316 325 327 326 322 316 313 312 312 315 321 319 318 331 341 341 340 336 338 343 347 350 352 352 353 356 356 353 355 354 353 355 357 358 359 360 360 360 360 358 360 359 358 359 358 357 356 356 354 354 353 352 351 351 350 350 349
312 312 311 311 310 310 310 310 310 310 311 310 310 310 309 310 310 310 311 311 312 311 311 312 310 309 309 309 310 309 312 323 331 333 330 325 320 315 313 312 315 320 318 321 332 338 338 337 334 336 340 344 349 351 352 353 353 353 352 353 352 351 355 356 358 359 359 360 361 360 359 359 359 359 359 358 358 357 356 354 353 352 352 351 351 349 350 349
313 313 313 313 312 311 311 311 310 310 310 311 311 310 311 311 311 311 311 312 312 312 312 311 310 309 309 310 309 308 316 325 328 334 331 326 324 318 313 312 315 319 318 324 332 337 336 335 333 334 337 341 346 348 351 353 353 353 352 350 350 349 352 355 356 359 359 360 361 360 359 359 359 360 358 359 359 356 355 354 352 352 352 351 351 350 349 349
313 313 313 313 313 313 313 312 312 311 311 311 311 311 311 311 311 312 313 313 313 312 312 311 310 309 309 309 308 312 320 323 324 332 329 323 323 318 313 312 317 319 319 326 332 336 334 332 333 334 336 338 343 348 352 352 352 354 351 348 350 346 349 353 356 358 359 361 361 359 359 358 360 360 358 359 358 356 356 354 352 352 352 350 350 349 349 349
313 313 313 313 313 313 313 313 313 313 311 311 311 312 312 311 312 312 314 314 313 313 311 311 309 309 309 308 313 321 324 325 327 331 328 323 320 317 312 313 318 318 319 327 333 336 333 330 332 332 334 338 340 345 351 350 351 354 353 348 350 346 344 350 356 358 359 360 359 359 359 359 359 359 358 359 357 357 356 354 352 352 352 350 349 349 349 348
313 313 313 313 313 313 313 313 313 313 313 312 311 312 313 312 312 313 314 314 313 313 311 310 309 309 310 307 316 326 328 331 332 330 326 320 319 316 312 315 320 317 322 329 333 335 332 329 330 331 334 336 336 338 346 350 352 354 353 349 351 347 342 346 354 356 358 360 358 358 359 359 359 358 359 359 356 356 354 353 352 352 351 350 349 349 349 348
313 313 313 313 313 313 313 313 313 313 313 313 312 312 312 312 313 314 314 314 313 313 311 310 309 309 309 311 318 326 328 331 329 327 324 318 318 314 312 318 320 319 326 331 333 334 332 329 328 329 332 333 332 332 338 345 349 350 348 350 352 346 342 344 353 357 358 359 358 357 357 358 359 358 358 357 355 354 353 352 351 351 350 348 349 349 348 347
313 312 313 313 313 313 313 313 313 313 313 313 313 312 312 313 314 314 314 313 313 313 311 309 309 309 311 317 324 327 329 330 325 324 321 317 315 312 315 322 321 323 329 331 331 332 331 328 327 327 328 329 331 332 337 340 346 347 346 348 346 343 345 343 350 356 357 357 357 356 356 358 357 356 358 357 355 354 353 352 351 350 349 349 348 347 347 347
312 312 312 312 312 312 312 313 313 313 313 313 313 312 312 313 314 315 314 314 314 313 311 308 309 309 312 321 326 326 329 329 325 323 320 317 314 313 321 324 322 325 331 330 329 329 329 328 327 327 328 329 330 332 335 337 342 347 346 345 344 343 342 343 354 356 357 358 358 355 356 359 358 356 358 357 354 353 352 351 350 350 349 349 347 346 347 347
312 312 312 311 311 312 312 312 313 313 313 313 313 313 313 313 314 314 313 314 313 312 309 308 310 310 316 326 326 324 329 328 325 325 321 318 316 317 324 326 324 328 330 328 326 326 326 327 327 326 327 328 329 331 333 337 340 343 344 344 343 341 340 348 356 355 357 356 356 356 356 357 359 357 357 357 355 353 352 351 350 350 349 348 347 346 347 346
312 312 312 311 311 311 311 312 312 313 313 313 313 313 313 313 314 314 314 314 313 311 309 309 311 313 320 330 327 324 327 328 326 326 324 320 319 320 325 328 327 329 329 326 325 324 325 326 326 326 326 327 328 330 330 334 338 342 343 342 343 336 338 351 353 354 357 353 355 356 355 355 357 357 357 356 354 354 352 350 351 350 349 348 346 346 346 345
312 312 312 311 310 311 311 312 312 312 313 313 313 313 313 314 314 314 314 314 313 311 309 311 311 315 326 330 327 324 324 325 325 327 326 322 321 322 325 328 328 328 328 325 325 324 325 325 325 325 327 327 328 328 330 333 337 341 339 336 340 336 337 350 350 353 358 353 356 354 353 356 356 355 356 355 354 355 353 351 351 349 348 349 346 346 346 346
313 314 313 313 312 312 312 312 312 312 312 313 313 313 313 314 314 314 314 313 315 312 312 319 317 317 327 329 326 324 322 324 325 328 329 325 324 325 325 327 328 328 327 326 325 325 324 324 325 324 325 326 327 328 329 332 333 337 337 331 336 336 336 349 351 352 356 356 357 351 353 357 357 357 356 356 356 355 354 353 352 351 349 349 347 347 346 346
315 315 314 314 314 314 314 313 313 312 312 313 313 313 313 314 314 314 314 312 314 314 314 325 327 323 325 325 326 325 323 324 326 327 329 327 327 325 326 326 327 327 326 325 324 325 325 324 324 323 324 325 326 328 327 326 326 331 336 331 335 337 334 344 350 351 351 352 354 351 354 355 355 357 357 356 356 355 354 353 354 352 350 350 348 347 346 346
315 314 314 314 314 314 314 314 313 312 312 312 313 314 314 314 314 314 315 313 315 316 316 322 327 326 325 323 326 326 323 324 326 326 326 326 327 325 326 326 325 326 325 325 324 324 325 323 324 322 323 324 325 329 324 324 328 328 330 329 332 335 334 341 347 349 350 349 351 351 354 356 355 356 357 356 354 355 356 354 352 353 351 350 350 347 347 347
314 315 315 315 316 315 315 314 313 313 312 313 313 313 314 315 316 315 316 319 321 323 323 323 324 325 323 322 325 325 323 325 326 325 325 326 326 325 325 325 325 325 324 324 324 324 324 323 322 320 321 323 325 328 327 329 332 331 332 331 330 331 333 341 346 346 347 348 350 349 351 355 355 354 356 356 354 354 355 355 352 353 354 351 350 348 348 348
315 316 316 317 317 316 315 314 314 313 312 313 312 314 319 322 323 321 320 325 327 326 326 324 321 321 323 324 324 325 325 326 325 324 325 327 327 326 325 325 325 324 324 324 324 324 323 322 320 320 321 323 325 327 328 331 332 333 333 332 331 330 330 339 347 346 347 348 348 350 351 354 355 354 355 355 355 356 356 357 354 351 354 354 352 349 348 349
316 316 317 317 318 316 315 314 314 313 312 313 312 317 326 326 323 323 323 325 326 324 323 322 321 320 322 324 325 326 327 326 326 325 326 326 327 326 324 325 325 324 324 324 325 325 323 321 321 321 322 323 325 326 328 329 332 332 331 329 330 330 331 341 349 346 347 349 346 350 351 352 354 353 354 356 355 356 357 357 356 353 353 353 354 350 348 349
316 318 317 317 317 316 315 315 314 313 312 313 312 316 325 323 319 320 320 321 323 323 322 320 321 320 320 323 325 325 325 325 325 325 326 326 326 326 325 325 324 324 325 325 325 324 323 322 322 323 323 324 325 326 327 329 330 331 330 328 327 330 332 338 347 346 345 346 345 349 350 349 352 353 354 356 355 356 356 356 356 356 355 354 354 353 350 349
317 317 316 316 316 316 317 315 313 313 312 313 314 318 322 321 319 319 318 319 319 321 321 320 320 320 320 322 323 323 323 323 323 326 326 325 326 326 325 326 325 325 324 324 325 323 320 322 323 324 324 324 324 325 326 327 329 331 330 328 326 332 332 328 336 340 340 344 346 347 347 348 351 351 353 355 355 357 356 355 356 356 356 355 354 354 352 349
317 317 316 316 315 316 319 317 316 316 314 314 317 321 322 319 319 319 319 319 318 320 321 319 318 319 319 322 323 322 322 322 322 326 326 324 326 326 326 327 325 325 325 324 326 324 322 324 325 324 323 324 324 324 326 325 327 331 332 330 329 333 332 329 333 336 335 342 347 345 342 344 350 351 351 353 353 356 355 356 357 354 353 355 355 354 353 351
317 317 316 316 315 316 319 320 320 319 318 317 319 321 320 318 319 319 319 319 318 320 320 319 318 317 318 320 322 322 321 321 321 325 326 324 326 326 326 327 325 325 325 325 325 325 325 327 326 324 324 324 324 324 328 326 324 327 332 334 334 334 335 333 333 333 328 331 341 343 335 336 346 349 350 350 351 353 355 357 358 355 354 354 355 352 352 353
317 317 316 315 316 315 318 322 320 319 321 320 320 319 319 320 320 318 319 318 317 319 319 317 316 317 318 319 320 320 319 320 320 324 326 324 325 327 326 327 326 325 325 326 326 325 326 328 326 325 323 324 323 324 328 329 325 323 330 335 336 336 334 333 332 330 323 324 338 340 330 330 340 346 347 348 349 352 355 357 358 357 354 354 355 352 353 355
317 317 316 315 316 315 317 320 320 320 321 321 320 319 319 321 320 319 321 318 316 318 318 316 316 317 318 320 320 319 318 319 320 324 326 323 324 326 325 327 326 325 327 327 324 324 326 326 326 325 323 324 323 323 328 331 327 325 332 334 335 335 333 334 332 328 327 326 332 335 328 329 334 341 345 346 347 352 354 352 355 357 354 353 353 353 354 354
317 317 316 315 316 318 317 316 320 322 321 320 320 319 319 320 319 319 321 317 316 319 318 316 316 317 317 319 319 319 319 320 320 323 325 323 323 325 325 325 325 325 328 326 322 324 326 326 326 325 324 324 323 325 330 333 329 329 331 330 331 334 332 333 332 328 329 326 323 329 328 327 331 338 343 348 348 350 352 349 352 355 353 352 352 355 357 356
317 317 316 315 316 321 322 317 319 321 319 319 319 319 320 320 320 319 320 318 317 317 318 316 315 317 318 319 319 320 319 319 320 323 323 322 323 325 324 322 324 324 326 327 324 326 326 325 327 326 325 325 326 329 332 332 330 329 329 331 330 331 330 333 333 329 327 324 321 326 324 324 329 335 339 344 345 349 352 350 352 354 353 354 354 356 358 358
317 317 317 315 316 322 324 320 320 320 319 320 319 319 320 319 320 318 316 317 318 317 318 316 315 317 318 318 318 320 320 319 320 321 321 323 324 323 323 322 322 324 326 327 326 327 326 326 328 328 328 329 330 331 330 329 331 329 328 330 329 330 331 332 333 328 325 322 322 324 325 325 327 333 337 341 344 348 352 351 352 353 353 354 354 355 356 359
317 317 316 316 316 317 319 321 322 322 320 320 320 320 320 320 320 317 315 317 316 316 317 316 317 318 318 317 317 318 318 319 320 320 320 321 322 322 321 321 322 323 324 325 325 327 327 325 328 329 330 331 329 330 330 330 329 329 329 330 327 326 327 326 327 326 323 321 322 325 327 324 323 331 341 343 346 346 349 351 351 351 352 354 354 354 356 359
317 316 316 317 317 316 318 321 321 321 320 319 320 322 322 323 320 316 317 317 314 315 317 317 317 317 317 317 317 317 318 319 320 319 320 319 319 320 320 320 322 320 319 320 322 325 326 326 327 328 330 330 328 326 326 329 329 330 328 326 323 321 324 323 322 323 322 322 324 326 326 324 326 336 344 345 346 345 347 351 350 351 351 354 354 355 358 358
316 317 317 318 319 318 318 320 319 319 320 320 321 323 325 325 323 317 316 316 314 315 317 317 317 318 318 317 317 317 317 318 319 319 320 319 319 319 319 320 322 321 318 320 320 320 322 325 327 328 328 328 328 325 323 327 329 329 326 322 321 320 322 322 320 321 322 321 324 327 325 327 332 341 346 345 345 346 348 349 350 351 350 353 354 354 357 358
316 318 319 319 320 319 318 319 318 318 321 322 322 322 323 323 323 318 315 316 316 316 317 318 317 317 317 317 318 318 316 317 319 319 319 319 319 318 318 320 321 322 322 321 319 319 318 321 325 326 326 328 329 327 326 328 328 329 330 326 323 321 321 320 320 320 321 320 322 325 324 326 333 340 344 345 345 346 346 345 347 348 350 352 352 352 356 357
317 320 321 320 320 320 320 321 319 318 321 323 322 321 320 319 319 316 316 317 317 317 317 317 317 317 316 317 318 318 317 318 318 319 319 318 318 319 319 320 320 323 322 320 320 321 318 319 324 326 326 328 328 328 330 329 327 328 329 327 323 324 324 320 319 320 320 319 319 322 327 332 339 343 345 346 345 346 346 345 348 348 350 353 351 354 356 355
319 322 323 321 320 320 321 321 320 320 322 324 321 320 320 319 317 316 317 317 316 317 316 316 316 315 314 316 317 318 318 318 319 318 319 319 320 320 321 321 321 323 322 320 321 320 317 318 324 327 326 327 327 329 330 328 326 327 326 324 325 329 327 319 319 319 318 319 318 324 332 336 340 344 344 346 345 345 347 347 348 349 350 353 353 355 356 355
318 322 323 322 320 319 319 320 320 321 322 323 321 319 319 319 318 317 317 317 316 317 316 314 315 314 313 314 316 318 318 318 318 317 317 319 320 320 321 321 321 322 322 321 321 321 319 318 324 327 324 325 326 328 330 330 328 324 322 325 326 329 328 322 320 319 318 317 316 325 333 332 336 342 345 347 348 347 349 347 347 350 350 352 354 355 355 354
318 321 322 320 319 318 319 320 321 321 322 321 320 320 319 317 318 318 317 317 316 317 316 314 314 315 314 314 315 317 318 317 317 318 317 318 318 319 320 321 321 321 321 321 321 322 321 317 321 324 322 324 325 326 325 326 328 326 323 327 326 321 322 322 320 319 319 317 315 324 331 330 333 340 342 345 349 349 349 347 345 348 349 352 353 354 355 354
317 321 323 321 319 317 319 320 321 322 322 321 320 321 319 317 318 318 317 318 317 317 318 317 316 316 315 315 315 317 317 316 317 318 318 318 317 318 320 320 320 321 322 321 320 321 323 318 317 322 322 323 323 322 320 322 325 325 324 326 325 322 321 321 321 320 320 319 316 321 329 329 333 342 343 345 348 347 346 345 344 347 348 349 351 352 353 354
319 323 323 321 319 318 318 320 321 322 322 320 319 321 319 317 319 318 318 318 318 317 318 319 318 316 316 316 316 316 317 317 316 317 318 318 317 317 319 318 319 320 321 321 320 320 324 321 317 321 322 321 319 320 320 320 322 322 321 322 322 323 324 322 321 320 320 321 317 318 326 331 336 343 344 343 344 344 343 344 345 347 348 348 349 351 352 353
323 323 321 320 319 318 317 319 320 322 323 323 321 319 318 318 318 318 318 318 318 318 317 320 319 317 317 317 316 317 317 317 317 317 318 318 317 317 318 318 318 319 319 320 320 321 322 321 319 318 319 318 319 321 322 322 322 322 321 321 323 323 321 319 320 320 320 321 318 321 328 333 337 341 341 340 340 342 342 343 345 346 347 347 348 349 351 353
323 323 320 318 318 317 318 320 320 320 323 323 321 318 318 319 318 318 319 318 318 318 317 319 319 318 318 317 317 317 317 317 318 318 318 317 317 317 317 319 319 320 320 320 321 321 321 322 320 318 318 319 322 323 323 322 324 323 322 324 325 324 321 318 318 320 320 320 322 328 331 334 337 339 339 338 339 340 341 342 344 346 346 347 348 348 350 351
324 321 319 317 317 319 320 321 320 319 319 319 318 318 318 319 319 318 318 318 318 319 318 318 318 319 319 318 318 317 317 318 318 319 319 317 318 317 318 319 320 320 320 320 321 321 320 321 320 319 320 321 322 323 323 324 323 322 322 324 325 325 323 321 321 323 320 319 325 332 332 333 337 339 338 338 340 340 340 341 342 345 345 346 347 347 349 350
324 320 318 317 317 319 320 320 320 319 319 318 318 318 318 318 319 318 318 318 319 319 319 318 318 318 320 319 318 318 318 318 317 317 318 318 317 317 318 318 319 319 319 319 321 321 319 321 319 317 318 318 319 320 320 321 322 321 323 324 324 325 325 324 324 325 323 320 324 332 334 333 336 339 338 337 339 339 340 340 340 343 344 344 345 346 347 348
324 321 320 318 316 318 318 319 320 319 318 318 318 318 318 318 318 318 318 318 319 319 318 318 318 319 319 319 319 318 318 318 318 318 318 317 316 317 317 317 317 318 317 319 322 321 321 323 321 319 317 317 318 319 318 319 320 321 322 323 325 324 323 323 322 322 321 321 324 332 335 336 337 339 338 336 337 338 339 340 339 339 341 342 343 344 344 345
325 322 321 320 318 319 318 317 318 319 318 319 319 318 317 317 317 317 318 319 318 319 319 319 319 319 318 318 318 319 318 318 319 318 318 318 317 317 317 317 316 316 316 318 320 320 322 323 323 323 321 319 320 322 323 320 319 319 320 322 323 323 324 324 320 320 322 322 326 333 337 335 335 337 337 336 336 336 337 339 339 338 338 339 340 341 341 342
324 320 319 321 321 320 319 318 317 318 318 319 319 318 317 318 317 317 318 318 318 319 318 319 318 319 320 320 320 319 320 319 319 319 318 318 317 316 317 317 317 315 317 319 318 319 322 320 322 325 323 321 322 322 322 321 319 319 320 321 322 322 324 322 320 323 325 322 326 336 338 334 335 338 338 337 336 336 336 337 338 337 337 337 338 339 339 339
320 317 316 317 320 320 318 318 318 318 317 317 317 317 317 318 318 318 318 318 318 318 319 320 319 319 320 320 321 321 321 320 320 319 320 319 318 317 316 317 317 316 317 318 317 320 321 319 319 320 320 321 321 320 321 320 320 321 320 320 321 321 322 321 320 324 325 323 327 337 336 334 336 336 335 336 336 335 335 335 335 336 336 336 336 336 337 337
319 319 316 315 317 319 316 316 318 318 317 318 318 317 317 318 317 317 317 318 319 317 319 321 319 318 319 319 322 323 322 323 323 322 321 321 319 319 318 318 317 317 317 318 318 319 318 319 320 319 318 319 319 320 320 319 319 320 320 320 320 321 321 321 323 324 324 326 332 336 335 337 339 338 336 336 336 335 335 335 334 334 335 335 335 336 336 336
320 321 321 320 318 317 317 319 319 318 317 319 319 317 317 318 317 317 317 318 319 318 319 320 318 319 319 319 322 323 322 323 324 322 321 321 320 320 321 320 318 318 318 317 318 318 317 318 321 320 317 318 318 319 319 319 319 318 319 320 319 320 321 320 323 324 324 327 333 335 337 339 339 338 336 335 335 335 334 334 335 334 334 333 334 334 335 335
321 319 320 324 320 315 318 320 319 321 320 319 319 317 318 318 316 316 317 317 318 319 318 319 318 319 319 319 320 320 319 320 321 320 320 319 318 320 321 320 319 320 320 319 318 318 317 317 320 319 316 315 317 318 317 318 318 316 317 319 318 318 319 320 322 323 323 326 330 335 338 338 337 337 335 333 335 334 334 335 334 333 334 333 333 333 333 333
323 321 321 323 321 317 318 320 319 321 321 319 318 318 318 317 317 318 318 317 317 318 317 318 318 318 319 319 318 318 317 317 318 317 317 317 318 318 318 317 318 319 321 320 318 318 318 318 319 317 315 314 315 317 317 316 315 314 315 318 318 318 319 320 321 322 324 325 327 333 337 338 335 334 334 333 334 334 334 334 333 333 333 332 332 332 332 331
Wind_Speed
12 12 12 12 12 12 13 13 12 12 12 11 10 9 9 9 9 8 8 10 11 11 10 9 9 8 7 7 8 8 9 10 10 12 14 9 8 12 13 13 15 13 11 11 11 12 13 13 13 12 12 11 10 11 9 8 5 5 1 2 1 1 1 4 5 5 6 7 6 5 5 6 7 6 6 7 6 5 8 9 7 12 19 22 26 31 31 29
12 12 12 12 12 12 12 12 12 13 12 12 11 11 10 10 10 9 9 9 10 11 11 10 9 8 7 7 7 8 10 10 11 16 12 5 8 11 13 14 14 14 13 12 14 15 14 12 12 12 13 12 9 9 8 5 3 3 2 2 0 1 2 5 10 10 9 10 9 7 5 5 7 7 6 6 7 7 8 7 5 14 23 25 29 30 29 29
14 13 13 13 13 13 12 12 12 12 13 12 12 12 12 11 11 10 10 9 10 11 11 11 9 8 6 6 7 8 10 11 14 16 8 6 10 9 11 14 14 15 14 13 14 14 13 11 11 11 12 11 8 8 5 4 4 5 4 2 1 6 7 7 13 14 13 15 13 9 6 6 9 7 5 8 9 6 7 7 8 18 28 28 30 29 29 29
15 15 14 14 14 13 13 13 12 12 12 13 13 13 12 12 12 12 11 10 10 10 11 11 9 8 6 6 6 7 9 11 9 6 2 5 8 8 10 12 13 15 13 13 13 13 13 12 11 12 12 10 9 8 5 5 4 3 3 2 4 8 9 9 14 17 16 16 14 12 8 7 9 7 7 10 8 2 7 11 13 23 31 30 31 30 28 27
15 15 15 15 15 14 14 13 13 12 12 12 13 13 13 13 12 12 12 11 10 10 10 10 9 7 6 5 6 6 7 5 1 3 3 3 4 7 10 11 13 14 13 13 13 13 13 13 12 12 12 10 9 7 6 6 4 3 4 7 9 3 10 14 17 20 18 14 14 13 9 9 9 7 8 10 6 3 10 15 19 26 30 31 31 29 28 27
15 15 15 16 16 15 14 14 13 13 13 12 13 13 14 13 13 13 12 11 10 9 9 9 9 7 6 5 6 5 4 2 3 2 5 5 7 8 9 11 13 14 14 14 14 14 14 14 13 13 11 10 10 6 3 6 7 5 4 7 13 6 11 20 20 21 22 16 12 11 9 10 7 6 8 8 7 8 11 15 22 26 28 30 29 29 28 26
14 14 15 15 16 16 15 15 14 13 13 12 13 13 13 13 13 12 11 11 10 9 9 8 8 7 6 6 6 5 10 11 6 6 6 8 8 8 10 12 14 16 17 16 15 14 14 15 14 13 11 9 10 7 7 5 10 10 5 4 12 6 9 20 24 22 23 18 12 11 11 9 6 6 8 7 8 12 11 14 23 25 27 28 27 27 27 26
15 14 14 15 15 16 16 15 14 13 13 13 13 12 13 12 12 11 11 11 10 9 8 7 7 6 6 6 5 7 13 12 5 7 9 10 8 7 12 15 17 19 19 17 16 14 14 15 15 13 11 10 10 7 14 8 8 12 7 2 10 5 6 15 26 24 21 19 13 13 12 8 8 7 6 7 9 14 14 16 23 25 26 27 26 27 26 25
16 16 15 15 15 16 16 15 14 14 13 12 12 12 12 11 11 11 11 11 10 10 8 6 6 5 7 5 5 8 8 5 5 9 11 11 9 9 15 18 20 22 20 17 15 15 14 13 14 13 12 12 13 7 11 10 6 11 8 3 10 7 3 10 23 24 20 21 16 14 12 8 9 8 5 8 12 16 17 19 23 25 26 26 25 26 26 25
17 17 16 16 16 16 16 15 15 14 13 12 12 12 12 11 9 10 11 11 9 9 7 5 5 5 6 4 5 6 0 1 6 10 11 11 8 12 17 18 20 21 18 16 15 16 15 13 12 12 14 13 12 12 6 8 5 8 10 8 12 7 0 3 18 24 19 18 17 13 9 8 10 7 5 8 14 18 19 22 24 25 26 25 25 25 24 24
17 17 17 17 16 17 16 16 15 15 14 13 12 11 11 10 9 10 11 9 7 8 7 5 4 5 5 4 8 6 2 1 2 4 8 7 8 15 17 16 19 20 16 15 15 15 14 14 11 10 10 8 9 11 9 10 7 8 9 7 10 8 5 4 14 24 19 12 15 14 7 7 8 6 6 11 15 16 19 24 25 24 25 24 25 25 23 23
17 17 17 16 16 17 16 16 15 15 14 13 12 11 10 9 9 10 9 7 6 7 6 5 4 5 4 6 14 10 3 2 2 1 4 5 8 14 15 14 17 18 15 13 14 14 13 13 11 12 9 5 9 9 6 10 10 9 8 7 8 9 8 7 14 24 19 9 17 20 7 4 6 6 8 15 16 17 20 24 25 23 24 24 25 25 23 23
17 17 18 17 16 16 16 16 15 15 14 13 12 10 9 9 9 9 6 5 6 6 5 3 4 4 4 8 11 7 2 2 4 4 5 7 9 13 13 13 16 15 13 12 12 12 13 13 12 14 13 10 10 6 9 11 10 8 8 7 6 6 6 10 19 27 19 10 22 18 4 3 5 7 9 13 15 18 20 23 24 24 23 24 24 23 22 22
17 17 18 18 18 17 16 15 14 14 13 13 12 9 8 8 8 7 4 4 4 5 4 3 4 3 6 10 5 5 4 2 4 6 8 9 10 12 13 12 14 14 12 12 11 10 12 13 11 13 14 14 14 9 10 10 8 6 8 7 5 4 5 11 19 26 16 12 23 11 2 4 5 7 7 7 12 15 20 23 22 23 23 24 23 23 22 22
16 15 16 17 18 17 16 14 13 12 12 12 10 8 7 6 7 5 3 3 3 3 1 2 4 3 8 12 6 5 7 5 6 8 9 11 12 12 13 12 13 13 12 12 10 9 11 10 8 11 12 13 15 11 7 7 6 6 7 5 5 4 3 9 15 21 16 15 23 10 3 5 6 8 8 9 13 11 15 21 22 22 23 23 23 23 22 22
14 13 14 15 16 16 15 14 12 10 10 11 9 7 5 5 6 4 3 2 2 2 1 0 3 4 7 7 5 4 7 9 9 9 9 11 12 11 12 12 12 12 10 11 9 8 10 8 9 12 13 12 10 7 6 6 7 7 7 6 5 5 4 4 6 13 17 14 15 9 4 5 7 12 12 14 15 7 8 14 16 19 22 24 23 22 22 22
14 14 14 14 15 15 14 13 11 9 8 9 8 5 4 5 5 4 3 3 4 3 4 2 3 7 10 6 5 7 9 10 10 10 10 10 10 10 12 12 11 11 9 10 8 7 8 10 9 9 10 10 7 6 7 7 7 7 7 6 6 7 7 4 2 7 13 9 8 7 7 7 8 12 14 15 15 9 7 8 9 14 20 23 22 22 23 22
14 14 14 14 15 16 15 13 11 8 7 8 7 5 4 6 6 5 5 4 4 4 5 7 5 7 11 12 10 9 11 11 11 11 10 9 10 11 12 12 11 10 10 10 9 8 8 10 9 7 8 9 8 7 8 8 8 8 9 7 6 8 8 8 10 10 12 9 8 6 7 11 9 9 11 13 16 12 9 11 12 15 19 22 21 22 23 23
12 13 14 15 16 16 16 14 11 7 6 6 5 5 7 8 8 8 7 6 7 7 3 7 14 4 3 10 14 12 12 12 12 11 11 10 9 11 12 11 10 12 11 9 10 12 10 8 9 7 7 9 10 10 11 11 12 11 9 8 7 8 9 9 12 13 12 10 8 6 7 12 12 10 10 10 15 14 10 12 12 10 13 17 20 21 22 23
11 12 14 15 16 17 16 14 10 6 5 4 3 5 7 8 8 6 8 12 16 14 7 4 17 10 2 7 10 10 12 13 12 11 12 10 9 12 13 12 12 12 11 8 8 12 11 8 8 9 10 11 12 13 14 15 16 15 10 8 7 7 9 7 14 13 11 7 5 5 6 10 11 12 14 13 14 12 9 10 8 7 11 15 17 20 23 23
12 14 15 16 16 16 15 12 9 5 3 3 3 6 7 7 5 2 2 11 18 19 15 10 13 14 7 3 9 12 10 10 12 11 11 12 11 12 13 14 11 9 10 12 9 10 11 8 9 12 13 13 13 14 15 16 17 17 12 9 7 7 7 8 18 14 11 7 5 7 7 8 9 9 14 16 14 12 11 11 11 12 15 17 17 17 21 22
14 16 17 17 16 15 14 10 7 4 2 4 4 7 8 8 8 7 8 10 13 16 17 13 13 13 9 2 7 10 9 10 12 13 13 14 14 12 13 13 10 8 11 13 9 8 9 9 11 13 13 14 14 13 15 17 16 15 11 8 7 6 7 9 18 18 12 7 7 11 9 8 10 10 13 17 14 13 17 18 17 18 17 17 17 17 20 22
14 16 17 17 16 14 12 9 7 4 2 5 5 6 8 8 7 8 9 10 12 12 16 15 14 13 10 7 6 8 12 11 12 15 16 15 16 14 12 12 10 10 11 12 11 8 7 9 13 14 12 13 15 14 15 14 12 12 9 7 7 7 8 5 10 15 11 8 11 13 9 6 9 11 12 15 16 14 18 20 19 20 16 12 14 17 17 20
14 15 16 17 15 12 9 9 8 6 2 3 5 8 9 8 7 10 9 10 11 10 13 13 13 14 13 11 9 11 13 12 12 16 17 16 17 14 11 12 11 11 11 13 14 11 9 10 13 15 13 13 15 14 13 10 8 10 10 8 7 9 8 3 8 8 8 11 15 12 7 5 8 11 10 12 16 15 17 18 16 19 19 10 10 16 17 18
14 15 15 16 15 11 8 7 7 7 3 1 4 6 7 7 5 8 8 9 8 7 10 11 12 13 14 11 10 13 14 12 14 15 18 18 17 12 9 11 10 10 12 15 15 12 10 11 13 15 15 14 13 11 11 10 8 9 10 11 10 11 10 8 10 7 6 7 16 14 5 4 10 12 10 11 13 14 17 19 15 14 18 14 12 18 19 17
13 14 14 15 14 11 10 8 6 4 4 5 2 2 5 5 5 7 6 6 6 6 7 10 10 8 12 12 10 12 12 12 14 15 18 17 17 12 8 9 9 10 12 12 11 7 8 12 13 14 15 14 13 11 12 11 9 7 9 13 14 14 13 7 3 6 6 4 13 17 6 2 10 11 12 14 14 16 15 17 18 15 15 17 18 22 21 18
13 14 14 14 13 12 11 6 2 5 4 0 3 4 5 5 5 6 5 6 5 7 7 8 8 6 10 11 11 10 6 8 14 16 18 16 17 14 9 7 8 10 12 8 7 6 9 14 13 13 15 14 12 10 9 9 8 7 8 14 16 16 15 8 6 7 7 7 7 13 8 2 6 9 13 14 13 17 16 14 18 19 19 21 22 25 23 22
12 14 14 13 11 11 10 4 3 9 8 4 5 5 5 7 6 5 5 4 2 6 6 7 5 4 8 10 14 13 2 8 12 14 15 15 17 15 11 10 9 11 14 10 7 7 9 15 13 12 13 10 9 9 9 11 9 10 9 9 13 17 15 7 7 8 8 7 5 10 9 3 6 10 12 11 11 12 14 13 13 16 23 27 28 26 23 22
13 14 15 14 10 9 10 5 5 9 8 6 7 6 5 7 6 5 5 2 1 4 4 6 6 6 8 10 16 17 6 7 9 12 15 16 16 15 10 8 11 12 15 14 10 8 10 15 13 10 9 6 8 10 11 11 9 11 11 10 10 14 12 7 7 7 5 6 7 9 10 5 5 10 11 10 11 8 8 10 11 14 19 23 27 25 21 21
13 14 15 15 11 8 10 9 6 5 7 7 6 5 6 6 6 6 5 1 1 4 7 6 8 9 10 10 13 16 11 8 8 13 16 13 15 15 11 7 11 11 12 14 13 10 12 13 8 7 8 8 9 11 12 10 9 12 11 8 9 8 9 8 8 6 5 7 9 11 11 8 6 7 9 7 9 10 9 8 9 12 14 16 21 22 21 21
13 14 14 14 12 7 9 10 5 4 7 7 5 5 7 6 5 5 3 2 2 4 7 6 9 11 12 11 11 12 12 8 5 8 10 8 11 12 9 6 7 8 8 9 10 9 11 10 7 6 9 10 11 11 11 10 10 11 8 6 6 3 3 5 6 6 6 7 9 12 12 10 6 6 9 9 10 10 9 9 7 10 16 19 19 21 21 20
13 13 12 11 11 8 6 8 8 6 6 4 4 6 5 3 3 4 1 2 2 1 3 7 9 11 12 13 11 12 12 9 8 7 7 7 9 9 8 7 6 5 6 7 8 9 11 9 9 10 12 14 14 10 10 9 8 9 8 7 7 4 3 4 6 7 7 8 10 12 12 7 1 8 11 12 13 11 10 14 14 14 17 20 20 21 20 19
11 11 9 9 10 9 5 7 8 5 2 2 5 6 2 2 2 6 2 1 1 3 4 6 10 10 12 13 11 13 14 9 11 11 10 9 9 9 11 11 10 8 6 7 10 10 8 9 11 12 12 14 14 9 9 8 8 9 9 7 7 6 7 7 8 7 7 9 13 14 11 5 5 10 11 11 13 13 11 16 20 19 20 22 21 21 19 18
9 8 9 9 9 10 8 5 6 3 2 3 3 3 2 1 3 7 2 1 0 2 6 4 8 10 12 12 11 12 11 8 11 12 11 10 8 8 10 13 12 10 7 7 8 9 10 8 9 10 7 11 12 12 9 8 8 10 9 7 7 7 7 8 7 7 8 9 12 15 9 6 7 7 9 9 13 14 12 12 15 15 17 22 21 18 18 18
7 6 9 8 8 11 8 4 5 3 2 5 1 2 3 4 2 3 2 3 2 2 4 5 5 10 12 11 10 12 10 8 10 11 10 10 9 7 9 10 11 9 7 7 5 7 13 10 10 14 10 9 13 14 10 9 8 8 9 8 8 9 8 6 7 9 9 8 9 9 1 8 9 9 9 9 11 14 13 13 13 14 18 20 17 15 16 18
8 9 9 5 4 5 3 3 3 1 2 6 3 1 3 4 3 5 4 3 6 5 2 3 5 6 9 8 8 12 10 7 9 10 10 9 5 3 4 4 5 4 3 2 2 3 10 9 11 16 11 7 14 14 9 9 7 6 8 9 8 10 9 6 7 9 10 9 7 5 8 9 10 10 9 9 9 11 11 12 14 16 19 17 13 13 14 13
10 12 9 3 0 1 1 3 1 1 5 5 3 4 2 1 4 5 4 3 4 6 3 3 3 5 7 5 4 7 6 4 8 9 8 7 4 4 2 4 3 2 4 4 4 5 6 3 8 14 10 9 14 16 14 13 9 4 8 9 9 11 10 7 5 7 9 9 8 9 12 11 9 6 6 10 11 9 9 11 13 16 18 16 11 10 11 11
10 10 8 4 1 1 1 4 3 2 6 5 4 7 4 3 4 5 4 6 2 1 4 1 3 5 6 3 4 7 5 3 8 8 5 6 4 4 4 3 3 2 5 5 4 7 8 2 7 9 9 8 9 11 12 13 13 10 5 2 6 9 8 6 5 5 7 8 8 11 15 10 9 8 7 11 12 10 10 10 12 15 16 16 13 12 12 11
10 10 8 5 3 1 2 5 6 5 5 4 1 4 4 3 5 6 5 5 3 2 4 5 3 4 4 3 5 8 8 5 7 7 4 4 3 4 5 3 2 4 7 7 6 7 8 3 5 7 9 9 7 6 7 8 11 13 9 5 7 7 6 7 6 4 6 7 8 11 13 7 7 11 11 11 11 10 11 10 10 14 16 17 14 13 13 10
13 11 5 4 1 2 4 8 9 6 3 4 4 3 3 3 5 6 5 4 4 2 3 4 5 3 3 6 8 7 7 9 9 6 3 2 1 3 4 3 4 6 7 6 8 7 8 5 4 6 10 9 6 7 10 10 10 10 8 6 7 7 7 8 7 6 6 5 7 8 7 5 6 10 12 14 12 9 10 11 11 13 16 17 15 13 12 10
15 9 3 2 3 2 5 9 8 5 2 4 7 1 4 4 4 4 4 4 4 2 1 2 3 3 3 4 5 5 6 7 7 3 3 1 1 3 4 5 6 7 6 6 8 4 4 4 1 4 8 7 8 12 13 9 8 9 9 8 8 9 9 6 6 8 8 6 6 3 6 6 6 8 10 12 12 11 12 14 15 16 17 16 14 14 13 11
14 6 3 3 3 3 7 7 5 5 3 1 3 3 3 4 5 4 2 4 4 2 2 0 1 2 2 1 2 3 2 0 2 4 3 2 5 6 4 6 8 8 6 6 4 6 6 4 3 2 3 3 6 11 9 4 5 7 9 9 10 10 8 7 7 6 8 9 5 4 7 5 5 7 9 10 11 13 15 17 17 18 19 18 15 13 12 13
12 3 5 3 1 4 7 5 3 4 1 3 2 2 3 4 4 4 1 3 4 2 2 1 2 2 2 3 2 4 1 3 3 4 4 4 6 6 5 6 9 8 5 4 4 9 6 4 4 2 2 2 2 5 3 4 5 7 7 8 10 8 4 6 5 1 3 8 3 6 4 5 6 7 9 11 14 15 15 16 18 19 19 20 17 13 13 14
13 4 3 3 2 6 7 3 3 2 3 3 2 2 2 3 6 6 4 5 5 4 3 3 2 1 3 4 2 2 3 1 0 3 3 4 4 4 5 7 9 7 6 6 6 6 5 2 3 3 2 5 5 2 3 6 5 6 7 8 9 4 5 8 4 3 3 6 1 6 3 5 7 7 10 12 14 15 15 15 17 19 20 20 17 14 14 15
13 6 3 2 2 6 4 4 4 3 3 1 1 2 2 2 3 6 6 5 6 7 4 3 4 2 2 3 2 2 3 1 1 1 3 5 5 3 4 6 8 9 9 9 8 6 4 2 3 3 4 5 4 1 4 6 7 7 9 11 9 5 6 8 5 2 5 5 2 6 6 5 6 8 10 12 13 14 14 15 16 17 18 18 17 15 14 14
10 6 3 0 2 3 1 4 5 4 3 1 1 2 2 3 4 1 5 3 3 6 5 3 4 3 2 1 0 2 3 2 3 3 2 4 5 3 4 5 7 9 8 9 9 6 3 2 3 1 2 3 1 3 8 5 6 8 10 11 8 5 6 4 4 3 1 2 2 8 10 10 10 10 10 12 12 13 14 16 17 17 17 15 16 16 15 15
9 5 3 3 4 2 3 4 5 4 3 3 2 3 3 3 2 2 1 3 2 4 4 4 5 5 3 2 1 2 2 1 4 4 3 4 5 4 2 3 6 6 7 7 5 4 3 2 2 2 3 3 3 4 7 8 7 10 16 15 6 6 6 5 7 4 4 4 1 8 12 12 11 11 11 11 11 11 13 15 16 17 18 16 16 17 15 16
6 3 6 4 4 3 4 6 7 5 4 4 3 2 3 2 3 4 3 3 3 3 3 2 3 4 4 6 3 2 4 3 2 3 3 2 3 5 3 2 4 2 4 4 4 4 4 3 3 3 6 5 4 7 7 7 11 9 12 11 4 7 8 8 12 9 2 3 4 8 11 12 12 12 12 11 12 13 13 14 15 15 15 15 15 15 15 15
8 4 4 4 3 4 4 3 5 5 6 5 3 3 4 3 4 5 4 3 2 2 4 2 1 3 3 7 7 2 3 2 1 2 3 2 0 2 2 3 4 2 2 3 5 4 3 2 2 2 5 4 5 7 7 7 8 6 2 4 1 6 8 9 13 10 4 2 9 11 9 7 6 8 12 14 15 17 15 14 15 14 14 14 14 13 14 15
12 7 5 4 3 5 4 2 2 2 3 1 1 3 5 5 7 5 6 8 5 2 3 2 4 4 4 7 7 3 5 3 3 1 2 3 2 1 1 3 3 3 3 3 3 3 2 2 3 4 5 5 6 5 6 8 7 5 3 3 1 7 7 7 8 5 3 3 11 12 8 7 2 4 12 17 16 16 16 15 13 12 12 13 13 12 12 13
11 7 7 8 3 2 3 2 1 1 1 2 2 4 4 5 6 3 5 9 8 6 6 5 5 5 6 8 7 6 7 4 1 3 2 3 4 2 3 4 3 3 2 1 1 2 2 1 1 2 4 6 6 6 8 9 7 9 9 5 4 8 7 6 6 4 3 5 10 11 7 5 4 7 12 17 17 16 15 14 13 13 12 11 11 12 12 13
12 8 8 10 4 2 3 1 2 1 2 5 5 4 4 5 4 3 3 4 4 6 7 5 4 2 3 7 7 7 7 5 4 4 3 3 4 3 2 2 3 4 4 3 1 1 3 3 2 3 3 6 8 8 7 7 7 8 10 8 9 9 7 7 8 3 3 5 8 9 6 8 13 13 12 14 16 16 15 14 13 11 11 10 9 10 11 13
Wind_Direction
5 2 358 356 355 353 351 348 346 344 339 338 335 333 333 331 329 328 329 326 325 324 320 318 313 305 301 303 303 302 296 284 280 270 265 258 234 229 229 232 230 230 230 210 195 207 214 220 228 226 225 226 232 239 237 236 210 100 74 267 328 294 27 84 122 144 145 140 144 138 127 125 112 105 112 113 118 132 135 135 143 143 136 135 138 139 142 142
360 357 353 351 351 352 351 349 348 345 341 338 335 334 333 332 331 331 333 331 327 323 319 318 315 308 302 299 303 305 295 291 282 270 263 221 223 236 232 232 226 220 220 205 197 208 213 215 220 218 226 230 230 231 221 214 177 120 221 261 87 161 144 122 129 143 149 143 144 141 146 136 122 127 129 130 147 155 135 133 170 143 132 135 140 142 144 145
355 352 349 347 346 348 348 348 347 342 339 336 333 332 331 332 331 332 334 334 331 324 318 315 315 310 299 296 301 299 300 301 286 276 265 215 227 234 231 229 220 217 216 205 200 211 217 217 218 219 230 234 229 228 211 162 158 180 199 293 259 159 146 137 134 144 146 141 140 137 154 146 130 139 150 143 141 147 140 156 184 144 137 142 144 145 146 147
351 348 346 343 342 345 345 345 344 340 336 332 332 329 329 330 330 333 334 333 332 324 318 314 314 309 296 296 293 298 310 303 283 268 237 221 230 227 229 227 216 214 210 198 204 218 223 226 225 223 233 240 230 233 235 195 180 194 197 273 237 155 131 131 128 134 140 141 139 136 148 142 133 152 169 149 132 143 160 177 179 146 144 148 148 149 149 150
350 347 344 340 339 341 341 341 340 338 335 330 329 327 327 329 330 332 331 332 330 322 319 313 312 304 293 290 283 300 312 308 112 154 228 253 256 237 226 220 211 208 195 186 208 226 225 229 231 228 237 247 233 221 244 237 216 216 229 262 263 184 124 131 134 137 139 139 138 139 145 138 138 153 167 159 138 165 169 174 167 148 148 151 150 151 151 152
350 348 344 340 338 339 339 337 337 336 333 329 327 326 326 328 331 331 329 332 329 322 319 314 311 296 290 282 279 291 268 282 59 227 267 300 281 247 217 207 200 194 182 186 216 228 223 228 232 229 232 246 244 223 255 279 266 255 240 262 275 274 127 138 147 144 138 139 144 145 140 130 130 136 167 178 146 159 171 161 153 149 151 151 151 152 152 155
348 346 343 339 336 337 338 336 336 333 330 327 325 325 326 328 329 330 328 329 327 321 318 315 306 286 285 277 275 267 246 267 293 245 273 315 291 239 203 192 188 182 177 194 221 223 219 226 229 229 233 242 246 215 184 237 263 267 269 251 264 267 122 141 149 141 135 140 147 142 131 132 147 139 162 190 159 166 176 155 149 150 152 152 153 154 154 156
342 340 338 336 334 334 334 334 335 332 329 324 323 323 325 328 327 327 327 327 325 317 317 314 298 282 277 270 279 271 250 251 233 229 275 305 295 230 192 181 182 178 179 201 218 219 220 226 228 229 236 237 253 214 162 175 253 249 248 283 275 270 108 133 136 132 132 137 150 147 134 152 170 137 149 193 177 174 172 157 152 151 155 155 156 156 155 157
336 333 331 330 329 329 330 332 332 331 329 323 321 321 324 329 325 324 322 323 319 312 317 306 286 274 268 267 285 278 255 231 227 252 277 295 287 217 186 179 181 177 183 204 216 221 221 226 230 229 245 255 282 282 168 177 221 227 229 213 263 268 111 124 127 132 134 137 154 152 134 151 157 131 154 194 174 169 165 157 156 155 158 158 158 158 156 159
331 328 325 324 323 323 324 327 329 330 329 323 320 320 324 328 325 322 319 321 317 312 317 294 277 266 264 278 279 273 211 291 281 275 274 284 266 201 183 179 181 179 188 206 216 225 223 227 236 235 260 273 291 301 235 215 209 226 245 216 240 265 274 127 128 131 129 137 151 142 130 148 156 154 172 183 169 169 165 158 160 158 159 160 158 158 158 160
327 324 322 320 317 317 318 321 325 327 328 326 320 320 324 326 326 323 317 316 311 314 313 285 272 256 252 262 258 264 38 308 289 291 270 264 223 190 177 180 185 183 193 209 215 224 226 231 247 247 257 268 266 275 261 246 224 222 251 240 242 242 208 178 127 122 116 131 136 125 133 152 170 195 178 170 170 177 171 160 159 159 160 162 159 158 161 162
325 322 320 317 315 313 313 315 318 322 326 326 322 322 325 326 328 324 317 314 313 315 306 280 264 250 252 261 248 251 325 284 168 175 229 201 190 181 171 183 190 188 200 214 217 223 229 234 250 255 255 279 259 260 287 265 235 225 255 259 244 235 202 146 108 110 110 123 128 126 137 161 199 218 169 162 175 186 174 159 159 159 160 162 159 159 162 163
326 323 319 316 314 312 312 313 314 316 321 324 324 322 325 328 328 325 317 312 318 313 299 265 251 247 251 266 248 228 268 241 174 169 178 168 170 174 175 189 193 198 211 218 220 221 231 238 247 260 268 279 265 288 333 287 242 229 249 256 250 245 199 134 104 103 104 138 147 141 141 183 228 223 177 165 182 187 168 160 163 160 161 162 158 161 164 164
328 325 319 315 313 314 315 314 312 312 316 321 324 322 325 331 331 332 322 314 325 315 297 242 247 244 248 267 252 192 205 181 187 185 175 173 169 175 183 192 197 206 217 223 232 227 228 240 250 264 270 269 270 302 319 275 246 234 237 246 248 248 173 139 117 108 105 161 169 160 112 179 234 211 180 164 187 186 165 165 167 161 162 162 159 162 165 165
331 328 322 316 314 315 317 317 312 308 309 315 321 323 322 328 335 337 312 304 326 318 309 248 251 229 253 259 233 213 223 204 210 193 179 180 174 179 187 192 200 204 217 225 237 235 227 240 249 255 260 260 265 282 286 252 240 232 230 236 223 240 171 139 126 119 122 168 184 187 132 165 203 179 157 165 188 186 168 170 167 166 164 160 161 165 166 166
339 337 332 326 323 322 322 322 314 305 304 311 318 321 317 324 332 327 303 267 294 320 158 349 303 259 272 267 202 209 218 205 205 188 186 189 181 184 186 187 195 202 218 218 227 243 229 233 243 245 256 258 251 251 256 242 228 214 217 234 213 227 224 151 109 121 128 152 180 186 148 153 173 158 147 171 187 167 172 185 170 171 168 161 164 167 167 167
345 348 347 343 339 335 333 330 321 307 299 305 314 317 308 304 299 295 285 241 263 288 206 219 316 262 257 264 227 212 203 199 190 181 187 191 187 185 176 181 191 197 209 204 219 249 218 216 235 242 248 250 241 231 241 235 221 206 209 224 209 222 227 184 148 138 138 143 165 164 147 147 150 145 145 171 184 154 159 192 188 189 175 163 167 168 168 169
349 354 357 355 352 346 342 339 330 313 296 302 312 303 282 278 273 264 250 242 260 258 239 228 228 257 248 233 226 209 199 191 179 181 187 186 189 180 175 186 188 186 197 199 213 229 211 207 220 233 232 232 235 224 225 231 225 214 204 207 205 221 232 183 159 155 158 157 159 159 132 131 141 147 146 166 177 161 150 174 202 210 183 167 171 171 168 171
353 355 359 358 355 351 345 341 335 317 296 298 299 286 283 275 262 250 236 231 223 219 261 203 197 248 324 201 208 203 190 178 172 184 187 184 183 178 183 191 186 188 199 198 200 208 207 206 211 225 227 218 223 223 230 238 242 244 218 208 206 208 239 208 153 146 166 159 151 161 125 132 154 161 151 170 176 164 163 185 203 216 188 174 176 174 170 173
353 353 353 350 350 350 343 338 334 317 292 287 285 276 283 278 255 228 208 219 227 236 286 222 203 239 330 167 181 172 163 165 178 190 188 186 179 181 188 190 191 197 207 205 193 198 205 216 213 218 226 222 221 225 240 248 254 269 262 239 225 210 246 209 137 138 165 160 145 148 130 138 153 154 153 171 178 163 170 191 182 187 200 192 186 178 173 174
351 349 348 344 346 346 342 335 325 313 275 252 252 251 271 315 324 328 237 229 231 239 260 255 225 244 265 149 135 142 149 168 192 195 187 190 186 184 184 189 196 194 211 218 203 194 206 227 223 219 225 231 233 226 236 251 254 264 269 268 258 227 237 139 130 151 161 139 142 149 146 148 147 151 156 163 175 173 174 186 175 180 201 203 199 186 174 174
349 349 346 343 344 345 345 338 323 315 252 217 214 235 266 333 351 333 315 278 250 235 236 242 239 244 254 231 144 166 187 189 197 196 185 189 194 188 177 189 206 195 204 218 210 193 206 230 230 224 223 227 243 238 232 244 250 257 254 257 272 232 204 142 145 169 162 128 153 162 161 162 159 160 162 165 175 179 179 187 184 183 192 193 198 194 178 176
349 350 348 348 349 350 356 1 356 338 252 192 201 245 283 323 332 316 303 287 275 240 219 223 232 234 230 223 184 192 211 202 198 193 183 191 202 199 186 192 213 206 201 211 215 207 206 226 228 230 228 221 235 239 233 238 244 257 254 247 269 237 210 186 162 172 171 158 163 166 163 166 170 165 169 174 174 177 182 186 187 190 192 184 195 199 182 176
349 353 353 355 354 351 4 23 26 15 27 157 230 267 300 315 315 319 303 278 280 244 215 215 222 224 219 217 201 207 223 213 201 189 180 196 206 204 203 203 210 215 212 209 216 224 222 219 218 227 233 222 230 236 232 236 230 241 249 242 248 239 230 162 130 162 185 163 150 155 155 160 181 172 172 177 171 172 175 175 185 194 189 188 215 200 181 180
351 354 354 357 357 351 347 356 15 14 14 224 260 273 304 317 308 318 307 275 266 220 205 204 210 217 209 205 196 207 225 219 210 188 176 199 209 200 210 213 213 220 214 208 217 229 230 221 209 218 229 223 229 235 225 228 231 230 233 233 236 237 218 150 137 183 211 163 154 166 182 164 181 179 172 179 174 171 171 170 175 186 178 182 217 201 185 186
349 352 352 353 357 353 335 338 12 351 260 227 293 316 309 321 312 310 303 274 247 178 168 181 192 195 190 192 187 206 226 217 210 186 173 201 217 212 221 209 208 232 224 208 215 228 231 231 215 209 223 221 221 232 224 217 230 230 212 220 238 252 235 195 207 229 229 229 175 183 226 176 169 177 175 184 177 165 170 169 163 169 170 175 203 205 194 190
345 349 351 349 355 358 343 342 16 321 290 176 3 333 317 317 310 310 284 261 226 165 143 157 177 184 192 192 182 205 226 178 186 180 174 199 216 221 241 219 200 233 240 217 206 222 225 233 224 206 217 218 211 227 220 202 225 242 214 210 223 250 255 247 287 266 230 256 202 184 223 213 152 173 180 183 168 155 169 172 159 165 168 169 193 206 200 192
340 344 350 353 356 0 356 347 313 325 342 9 329 308 316 308 296 289 270 273 156 148 136 139 160 194 204 190 191 215 216 137 167 162 170 201 210 215 234 240 239 233 233 228 203 200 220 230 222 208 221 219 202 222 215 195 217 241 242 242 226 235 253 256 269 259 223 243 231 182 199 193 131 158 167 158 144 150 169 167 158 169 170 169 183 197 196 189
335 339 347 356 356 355 359 350 320 332 344 335 311 304 304 295 282 264 260 292 138 166 139 147 166 186 195 182 199 217 196 163 183 154 169 201 208 220 236 255 276 252 228 240 233 194 212 233 221 203 224 218 194 221 224 203 213 234 249 290 262 220 225 241 248 248 225 240 238 198 194 186 138 153 160 155 151 159 167 161 164 173 176 174 176 185 190 185
332 336 341 351 355 344 323 304 295 327 335 322 309 306 294 282 272 249 225 162 188 154 124 146 176 180 189 184 198 216 203 198 206 166 170 188 198 229 266 288 289 268 226 240 247 210 203 218 204 187 216 227 216 220 226 214 219 235 234 267 269 213 196 218 228 233 237 232 232 227 205 176 161 168 172 165 146 152 163 167 167 164 178 192 181 180 187 189
334 336 340 349 357 344 301 298 319 321 318 323 314 296 279 263 256 247 222 355 335 148 146 172 176 175 193 199 191 203 207 192 168 165 168 176 195 220 255 258 261 262 224 227 247 241 227 208 172 189 215 231 237 222 222 219 216 236 231 213 247 234 188 229 232 235 247 234 232 243 226 196 193 171 154 134 123 144 160 158 175 175 180 196 193 185 186 189
335 336 345 355 2 10 336 326 339 311 302 325 309 288 282 271 250 239 201 315 299 153 191 182 170 179 194 206 191 186 206 181 148 191 196 184 201 205 218 220 204 225 226 207 211 230 241 214 178 195 208 222 238 218 207 213 206 232 237 203 213 209 183 226 228 219 233 240 238 236 229 226 39 95 124 136 140 153 148 146 176 195 183 186 191 188 187 185
339 339 355 2 2 20 11 325 319 311 321 320 304 301 304 75 274 253 210 215 328 10 300 175 161 188 195 201 193 183 207 195 163 201 208 194 208 195 206 221 206 214 233 209 202 201 214 214 197 199 198 211 240 233 196 196 192 213 227 204 204 210 195 208 221 215 220 236 246 245 227 186 97 103 132 148 141 141 133 140 167 184 184 187 186 183 185 183
336 339 1 6 1 14 23 345 317 335 353 292 319 353 290 181 242 255 235 177 36 339 287 226 168 187 197 207 197 180 208 204 171 194 196 191 211 190 197 223 220 231 249 213 210 212 212 212 198 209 198 183 224 253 227 204 195 208 230 214 199 222 217 203 213 218 218 224 237 246 233 151 130 122 130 132 122 125 129 137 150 151 161 178 183 179 180 179
334 339 357 9 11 11 14 341 318 359 335 282 302 62 296 279 280 297 4 24 319 223 225 257 232 192 194 213 195 180 213 210 179 200 204 191 207 197 186 205 215 241 261 215 208 236 230 219 182 203 220 176 201 245 243 219 207 202 230 228 201 222 231 217 221 219 216 219 222 228 175 94 117 121 121 127 121 124 129 134 131 115 127 156 173 175 178 178
321 307 312 334 15 17 357 284 313 25 269 281 294 243 253 261 306 344 9 356 318 309 202 213 253 208 196 212 185 179 207 219 191 201 214 197 180 181 175 168 193 217 314 283 278 274 242 229 174 183 210 202 209 231 228 222 227 193 210 226 219 233 245 239 227 220 215 219 214 166 105 104 130 133 133 128 114 116 118 116 117 112 116 133 153 167 174 173
308 297 288 286 17 46 224 237 219 198 260 275 296 291 273 264 316 345 350 307 313 318 299 176 195 238 222 198 176 191 192 220 217 202 205 195 119 43 359 32 59 104 28 353 313 310 281 251 140 159 189 209 212 221 222 227 245 224 198 209 225 241 258 267 244 227 219 219 212 157 133 145 151 133 126 119 102 96 101 103 110 113 113 114 122 144 158 161
303 303 281 238 141 58 184 209 199 221 274 281 287 295 320 47 354 360 350 314 300 259 303 257 163 247 254 179 181 220 192 197 238 218 196 186 130 17 325 353 34 33 359 339 305 302 299 270 133 162 194 190 193 217 225 223 234 249 247 239 246 237 236 247 249 245 229 229 221 162 145 160 162 144 141 129 116 104 95 93 97 98 103 108 112 122 133 147
289 292 269 214 158 38 200 208 227 241 274 304 327 298 319 47 21 13 11 322 318 67 352 322 246 230 254 227 209 220 206 201 235 229 207 190 151 18 340 321 358 0 346 322 291 294 299 260 163 189 205 180 172 212 223 213 228 252 275 288 260 247 236 226 214 237 245 236 226 175 153 158 150 142 139 121 111 109 101 92 89 87 88 95 101 110 118 125
278 273 245 179 196 304 228 221 242 250 283 302 258 250 330 22 29 22 16 327 311 19 31 329 275 227 230 243 228 217 212 210 218 216 179 171 164 40 12 338 323 326 328 297 269 281 289 259 169 187 208 186 169 205 215 214 216 232 247 241 227 224 241 239 210 218 246 243 236 207 157 117 110 130 133 121 114 114 106 95 89 87 85 83 81 86 96 102
288 274 156 144 294 283 226 232 249 250 213 263 262 329 29 337 337 20 24 340 310 280 358 349 286 253 256 257 234 211 210 213 208 172 105 82 347 34 24 351 322 309 310 268 248 280 305 275 173 174 202 200 197 201 209 225 227 223 224 220 219 216 219 236 226 216 227 250 257 206 121 99 105 126 133 130 128 123 112 100 89 87 86 80 71 69 73 78
289 282 71 351 289 213 238 254 266 247 198 226 278 42 44 283 307 4 6 332 326 281 260 300 69 290 285 28 321 258 223 240 103 107 105 68 38 31 20 348 320 302 298 264 259 19 6 303 292 221 207 232 201 180 183 237 292 276 246 219 220 223 212 218 229 216 215 234 247 100 107 109 109 122 126 123 117 109 104 101 94 90 86 79 70 66 66 67
281 268 65 34 184 210 257 284 294 265 44 28 319 38 4 315 356 17 9 334 323 297 286 353 71 343 324 116 188 231 154 39 43 90 110 100 57 26 16 3 333 317 315 305 350 13 351 269 259 299 329 294 170 140 180 247 289 282 252 228 225 221 222 244 245 334 256 237 202 82 109 139 119 111 111 111 109 103 102 102 99 96 91 84 74 69 73 71
299 303 74 73 167 248 271 312 308 297 63 13 296 100 54 347 3 358 17 27 346 331 353 20 66 359 6 72 134 199 114 84 231 104 97 107 87 30 28 16 351 4 30 5 357 352 330 253 236 264 247 212 182 147 231 229 252 255 221 224 241 255 328 319 328 34 304 273 64 80 107 136 128 126 122 121 114 106 103 101 97 93 90 90 85 76 75 75
306 290 218 138 207 249 285 360 328 350 64 341 315 92 158 124 31 337 339 6 352 341 349 7 7 6 48 57 73 127 125 166 215 125 84 95 104 68 52 34 12 29 37 8 347 332 325 326 295 256 233 222 185 208 260 219 218 240 226 220 233 269 314 323 337 316 262 280 39 97 117 130 134 136 131 126 117 109 106 101 95 89 84 88 92 85 77 77
297 288 238 39 312 254 27 7 335 1 19 311 36 1 329 69 87 304 304 325 3 343 340 1 336 319 111 104 354 117 151 159 139 167 165 115 117 92 57 54 43 34 15 356 347 334 317 325 343 2 308 327 49 289 299 279 216 226 235 230 233 270 282 291 302 298 336 339 63 114 132 146 149 144 132 123 119 116 113 109 105 102 96 91 91 88 81 78
284 325 4 6 327 326 64 15 358 26 5 346 24 350 338 19 72 134 296 329 341 311 325 4 330 316 45 71 341 356 350 78 126 147 144 97 101 103 77 64 67 39 349 337 351 345 302 245 162 166 254 315 352 308 309 318 298 250 227 221 230 273 285 290 263 245 57 27 181 142 144 151 150 143 131 124 123 119 114 112 109 108 107 102 94 89 84 81
298 16 30 2 322 343 31 13 6 35 36 14 12 337 342 5 20 51 57 345 330 302 304 356 350 334 32 84 106 345 342 357 82 98 93 87 121 146 156 105 87 59 323 336 22 7 297 249 152 186 239 249 291 301 290 304 323 295 222 205 222 256 256 267 259 252 330 30 144 158 166 160 153 148 137 130 125 117 114 114 110 107 104 99 94 88 81 79
344 40 43 3 348 11 26 11 358 33 44 14 358 13 4 27 55 37 11 352 21 11 324 323 64 334 351 88 99 59 31 40 305 30 42 357 35 160 163 114 106 85 5 7 34 20 302 311 44 334 293 265 261 288 286 288 330 349 169 146 356 280 262 258 257 259 285 111 136 156 167 137 132 150 137 128 123 113 107 106 107 108 105 95 88 85 80 75
357 10 9 346 40 34 357 306 312 59 91 338 316 43 24 33 63 54 13 9 32 60 343 354 71 22 8 90 113 114 89 112 235 337 20 338 349 317 358 62 73 44 17 354 23 23 327 16 30 325 305 277 253 269 281 282 305 313 248 169 235 280 284 279 270 272 281 174 148 152 143 98 64 185 139 126 123 114 103 96 92 91 100 101 93 85 80 74
355 358 343 329 360 43 322 310 334 325 105 104 21 29 45 50 53 49 28 25 25 34 29 34 59 45 41 70 79 68 68 74 62 63 32 356 20 35 47 35 354 343 1 340 18 349 288 227 120 262 269 263 247 236 248 263 278 277 264 233 215 248 259 261 258 256 253 209 164 148 138 127 163 181 144 126 123 121 114 105 92 74 70 84 95 92 84 77
356 0 341 319 310 177 252 267 106 359 29 71 53 28 54 66 37 347 11 49 41 30 27 24 27 39 77 77 62 38 30 21 27 35 2 3 27 36 55 34 321 332 357 6 17 300 286 290 253 207 232 257 243 228 242 255 250 254 257 239 222 231 244 244 232 222 323 269 190 160 160 168 166 163 147 132 129 128 124 117 107 90 71 64 75 88 83 76